Home > Weather > Mamoutzou > Past weeks

Flag for Mayotte Past Weather in Mamoutzou, Mayotte — Yesterday and Last 2 Weeks

Now
82 °F

Passing clouds.


Feels Like: 87 °F
Forecast: 77 / 81 °F
Wind: 2 mph from North

Location: Dzaoudzi / Pamanzi Mayotte

Current Time: Jun 1, 2016 at 8:44:56 AM

Latest Report: Jun 1, 2016 at 8:00 AM


Visibility: N/A

Pressure: 30.04 "Hg

Humidity: 70%

Dew Point: 72 °F

Location of MamoutzouLocation

Past Weather in Mamoutzou — Graph

°F

Mamoutzou Temperature Yesterday

Maximum temperature yesterday: 86 °F (at 12:00 PM)
Minimum temperature yesterday: 77 °F (at 12:00 AM)
Average temperature yesterday: 81 °F

High & Low Weather Summary for the Past Weeks

 TemperatureHumidityPressure
High86 °F (May 17, 9:00 AM)100% (May 28, 4:30 AM)30.15 "Hg (May 28, 4:30 AM)
Low70 °F (May 28, 4:00 AM)45% (May 22, 9:00 AM)29.89 "Hg (May 17, 2:00 PM)
Average80 °F67%30.02 "Hg
* Reported May 17 7:00 AM — Jun 1 7:05 AM, Mamoutzou, Weather by CustomWeather, © 2016

Note: Actual official high and low records may vary slightly from our data, if they occured in-between our weather recording intervals... More about our weather records

Advertising

Mamoutzou Weather History for the Previous 24 Hours

Scroll right to see more
 ConditionsComfort  
Time TempWeatherWind HumidityBarometerVisibility
7:05 AM
Wed, Jun 1
75 °FPassing clouds.3 mph94%30.04 "HgN/A
6:30 AM73 °FPassing clouds.3 mph94%30.01 "HgN/A
6:00 AM73 °FPassing clouds.3 mph89%30.01 "HgN/A
5:30 AM75 °FPassing clouds.5 mph89%30.01 "HgN/A
5:00 AM77 °FPassing clouds.6 mph83%30.01 "HgN/A
4:30 AM77 °FPassing clouds.6 mph83%29.98 "HgN/A
4:00 AM77 °FPassing clouds.6 mph83%29.98 "HgN/A
3:30 AM77 °FWarm.9 mph83%30.01 "HgN/A
3:00 AM77 °FWarm.10 mph83%30.01 "HgN/A
2:30 AM75 °FMild.6 mph89%30.01 "HgN/A
2:00 AM75 °FMild.5 mph89%30.01 "HgN/A
1:30 AM77 °FWarm.6 mph79%30.01 "HgN/A
1:00 AM77 °FWarm.6 mph79%30.04 "HgN/A
12:30 AM77 °FWarm.6 mph79%30.04 "HgN/A
12:00 AM77 °FWarm.5 mph79%30.04 "HgN/A
11:30 PM
Tue, May 31
77 °FPassing clouds.6 mph79%30.04 "HgN/A
11:00 PM77 °FPassing clouds.6 mph83%30.07 "HgN/A
10:30 PM77 °FPassing clouds.6 mph79%30.07 "HgN/A
10:00 PM77 °FWarm.8 mph79%30.07 "HgN/A
9:30 PM79 °FWarm.8 mph79%30.04 "HgN/A
9:00 PM79 °FWarm.9 mph79%30.04 "HgN/A
7:00 PM79 °FWarm.9 mph74%30.01 "HgN/A
6:30 PM79 °FPassing clouds.9 mph70%30.01 "HgN/A
6:00 PM79 °FPassing clouds.9 mph74%30.01 "HgN/A
5:30 PM81 °FPassing clouds.9 mph70%30.01 "HgN/A
5:00 PM82 °FPassing clouds.10 mph66%29.98 "HgN/A
4:30 PM82 °FPassing clouds.10 mph66%29.98 "HgN/A
4:00 PM82 °FPassing clouds.12 mph66%29.98 "HgN/A
3:30 PM84 °FPassing clouds.12 mph62%29.98 "HgN/A
3:00 PM84 °FPassing clouds.10 mph58%29.98 "HgN/A
2:30 PM86 °FScattered clouds.12 mph55%29.98 "HgN/A
2:00 PM86 °FScattered clouds.13 mph59%29.98 "HgN/A
1:30 PM86 °FScattered clouds.13 mph59%29.98 "HgN/A
1:00 PM86 °FScattered clouds.12 mph59%29.98 "HgN/A
12:30 PM86 °FScattered clouds.12 mph59%30.01 "HgN/A
12:00 PM86 °FScattered clouds.10 mph59%30.01 "HgN/A
11:30 AM84 °FScattered clouds.10 mph62%30.04 "HgN/A
11:00 AM84 °FScattered clouds.12 mph58%30.04 "HgN/A
10:00 AM84 °FScattered clouds.10 mph62%30.04 "HgN/A
9:30 AM82 °FScattered clouds.9 mph66%30.04 "HgN/A
9:14 AM82 °FScattered clouds.10 mph66%30.04 "HgN/A
8:30 AM82 °FScattered clouds.10 mph66%30.04 "HgN/A
8:00 AM82 °FScattered clouds.9 mph66%30.04 "HgN/A
Weather by CustomWeather, © 2016

See weather overviewHow to use our weather pages